Home > Weather > Luton > Past weeks

Flag for United Kingdom Past Weather in Luton, England, United Kingdom — Yesterday and Last 2 Weeks

Now
59 °F

Partly sunny.


Feels Like: 57 °F
Forecast: 54 / 64 °F
Wind: 10 mph from Southwest

Location: Luton Airport

Current Time: Jun 29, 2016 at 10:08:32 AM

Latest Report: Jun 29, 2016 at 9:20 AM


Visibility: N/A

Pressure: 29.80 "Hg

Humidity: 82%

Dew Point: 54 °F

Location of LutonLocation

Past Weather in Luton — Graph

°F

Luton Temperature Yesterday

Maximum temperature yesterday: 68 °F (at 12:50 PM)
Minimum temperature yesterday: 48 °F (at 4:50 AM)
Average temperature yesterday: 57 °F

High & Low Weather Summary for the Past Weeks

 TemperatureHumidityPressure
High72 °F (Jun 20, 3:50 PM)100% (Jun 14, 8:50 AM)30.24 "Hg (Jun 14, 8:50 AM)
Low48 °F (Jun 28, 4:50 AM)46% (Jun 28, 12:50 PM)29.36 "Hg (Jun 14, 2:50 PM)
Average60 °F86%29.90 "Hg
* Reported Jun 14 8:20 AM — Jun 29 8:50 AM, Luton, Weather by CustomWeather, © 2016

Note: Actual official high and low records may vary slightly from our data, if they occured in-between our weather recording intervals... More about our weather records

Advertising

Luton Weather History for the Previous 24 Hours

Scroll right to see more
 ConditionsComfort  
Time TempWeatherWind HumidityBarometerVisibility
8:50 AM
Wed, Jun 29
59 °FScattered clouds.9 mph82%29.80 "HgN/A
8:20 AM57 °FCool.7 mph88%29.80 "HgN/A
7:50 AM57 °FPassing clouds.12 mph88%29.83 "HgN/A
7:20 AM57 °FCool.9 mph88%29.83 "HgN/A
6:50 AM55 °FCool.9 mph94%29.80 "HgN/A
6:20 AM54 °FCool.10 mph94%29.80 "HgN/A
5:50 AM52 °FCool.10 mph94%29.80 "HgN/A
5:20 AM50 °FCool.7 mph94%29.80 "HgN/A
4:50 AM50 °FCool.7 mph94%29.80 "HgN/A
4:20 AM50 °FCool.10 mph94%29.80 "HgN/A
3:50 AM50 °FPassing clouds.14 mph100%29.80 "HgN/A
3:20 AM52 °FMostly cloudy.17 mph94%29.80 "HgN/A
2:50 AM54 °FMostly cloudy.15 mph94%29.80 "HgN/A
2:20 AM54 °FOvercast.17 mph94%29.77 "HgN/A
1:50 AM55 °FLow clouds.21 mph94%29.77 "HgN/A
1:20 AM55 °FMostly cloudy.16 mph100%29.74 "HgN/A
12:50 AM55 °FPassing clouds.15 mph100%29.74 "HgN/A
12:20 AM55 °FMostly cloudy.15 mph100%29.74 "HgN/A
11:50 PM
Tue, Jun 28
55 °FMostly cloudy.9 mph94%29.74 "HgN/A
11:20 PM55 °FPassing clouds.9 mph100%29.71 "HgN/A
10:50 PM55 °FPartly cloudy.6 mph100%29.71 "HgN/A
10:20 PM55 °FLight rain. Mostly cloudy.6 mph100%29.71 "Hg5 mi
9:50 PM55 °FLight rain. Low clouds.7 mph94%29.71 "HgN/A
9:20 PM54 °FLow clouds.7 mph100%29.71 "HgN/A
8:50 PM54 °FLow clouds.9 mph100%29.71 "HgN/A
8:20 PM54 °FLight rain. Low clouds.9 mph100%29.74 "HgN/A
7:50 PM54 °FDrizzle. Mostly cloudy.12 mph100%29.77 "Hg3 mi
7:20 PM55 °FLight rain. Mostly cloudy.8 mph94%29.77 "Hg4 mi
6:50 PM55 °FPartly sunny.7 mph94%29.80 "HgN/A
6:20 PM54 °FOvercast.5 mph94%29.80 "HgN/A
5:20 PM57 °FLight rain. Passing clouds.9 mph88%29.83 "HgN/A
4:50 PM57 °FLight rain. Partly sunny.7 mph88%29.83 "HgN/A
4:20 PM61 °FLight rain. Partly sunny.9 mph72%29.86 "Hg5 mi
3:50 PM64 °FPassing clouds.8 mph56%29.86 "HgN/A
3:20 PM64 °FPartly sunny.8 mph60%29.89 "HgN/A
2:50 PM68 °FScattered clouds.10 mph49%29.89 "HgN/A
2:20 PM66 °FPartly sunny.8 mph49%29.89 "HgN/A
1:50 PM66 °FScattered clouds.8 mph52%29.92 "HgN/A
1:20 PM66 °FPartly sunny.9 mph49%29.92 "HgN/A
12:50 PM68 °FScattered clouds.7 mph46%29.95 "HgN/A
12:20 PM66 °FPartly sunny.7 mph49%29.95 "HgN/A
11:50 AM64 °FScattered clouds.6 mph56%29.98 "HgN/A
11:20 AM64 °FScattered clouds.7 mph56%29.98 "HgN/A
10:50 AM64 °FPassing clouds.6 mph56%30.01 "HgN/A
10:20 AM64 °FPassing clouds.6 mph56%30.01 "HgN/A
Weather by CustomWeather, © 2016

See weather overviewHow to use our weather pages